Simultaneous Nadir Overpasses (SNOs) Predictions

Prediction of SNOs between GOES-17 and METOP-B Satellite Orbit:

Table of predicted SNOs for the next 14.0 days since TLE Epoch: 10/22/2022
Index Date Time (GOES-17) GOES-17 Lat,Lon METOP-B Lat,Lon Distance(km) Time Diff (sec)
1 10/22/2022 18:31:51 -0.07,-137.34 -0.57,-135.20 243.71 80
2 10/24/2022 06:50:52 0.07,-137.32 -0.50,-139.79 281.83 80
3 10/25/2022 06:30:13 0.07,-137.31 0.64,-134.80 286.52 80
4 10/26/2022 18:46:25 -0.07,-137.31 0.37,-139.36 233.81 80
5 10/27/2022 18:28:26 -0.07,-137.29 -0.71,-134.36 333.93 80
6 10/29/2022 06:44:46 0.06,-137.26 -0.34,-138.95 193.37 80
7 10/30/2022 06:26:48 0.06,-137.24 0.81,-133.96 373.79 80
8 10/31/2022 18:42:59 -0.05,-137.22 0.26,-138.51 148.30 80
9 11/01/2022 18:25:01 -0.05,-137.19 -0.89,-133.52 418.60 80
10 11/03/2022 06:41:21 0.05,-137.15 -0.16,-138.11 109.48 80
11 11/04/2022 06:23:21 0.05,-137.13 0.94,-133.11 457.28 80
